This demonstration page uses our WeatherBlox Daily Observations layout. Learn more.

Left ArrowRight Arrow

Hourly Observations for December 11, 2016

Temp ( °F °C ) Dew Point ( °F °C ) Humidity (%) Winds ( mph kmh ) Pressure ( in mb ) Visibility ( mi km ) Precip ( " mm )
12:19 am 00:19 Cloudy 27 -3 19 -7 74 74 SE 5 7 30.42 1030 10 16 N/A
12:39 am 00:39 Cloudy 27 -3 19 -7 74 74 SE 3 6 30.42 1030 10 16 N/A
12:59 am 00:59 Cloudy 27 -3 21 -6 80 80 SE 7 11 30.39 1029 3 5 N/A
1:19 am 01:19 Cloudy 27 -3 21 -6 80 80 SSE 6 9 30.39 1029 3 5 N/A
1:39 am 01:39 Cloudy 25 -4 23 -5 93 93 SE 6 9 30.39 1029 3 4 N/A
1:59 am 01:59 Cloudy 25 -4 23 -5 93 93 SE 6 9 30.39 1029 7 11 N/A
2:19 am 02:19 Cloudy 25 -4 23 -5 93 93 ESE 7 11 30.36 1028 7 11 N/A
2:39 am 02:39 Cloudy 27 -3 23 -5 86 86 ESE 8 13 30.36 1028 10 16 N/A
2:59 am 02:59 Cloudy 27 -3 23 -5 86 86 SE 9 15 30.30 1026 10 16 N/A
3:19 am 03:19 Cloudy 27 -3 21 -6 80 80 SE 9 15 30.30 1026 10 16 N/A
3:39 am 03:39 Cloudy 27 -3 21 -6 80 80 SE 9 15 30.30 1026 10 16 N/A
3:59 am 03:59 Cloudy 27 -3 21 -6 80 80 SE 9 15 30.30 1026 10 16 N/A
4:19 am 04:19 Cloudy 27 -3 21 -6 80 80 SSE 10 17 30.30 1026 10 16 N/A
4:39 am 04:39 Cloudy 27 -3 21 -6 80 80 SE 8 13 30.30 1026 10 16 N/A
4:59 am 04:59 Cloudy 28 -2 21 -6 74 74 SE 10 17 30.27 1025 10 16 N/A
5:19 am 05:19 Cloudy 28 -2 21 -6 74 74 SE 12 19 30.27 1025 10 16 N/A
5:39 am 05:39 Cloudy 28 -2 21 -6 74 74 SSE 9 15 30.24 1024 10 16 N/A
6:19 am 06:19 Cloudy 28 -2 21 -6 74 74 SSE 12 19 30.24 1024 10 16 N/A
6:39 am 06:39 Cloudy 28 -2 19 -7 69 69 SSE 9 15 30.24 1024 10 16 N/A
6:59 am 06:59 Cloudy 28 -2 21 -6 74 74 SSE 9 15 30.24 1024 10 16 N/A
7:19 am 07:19 Cloudy 28 -2 21 -6 74 74 SSE 10 17 30.24 1024 10 16 N/A
7:39 am 07:39 Cloudy 28 -2 19 -7 69 69 SSE 12 19 30.24 1024 10 16 N/A
7:59 am 07:59 Cloudy 30 -1 19 -7 64 64 SE 9 15 N/A 10 16 N/A
8:19 am 08:19 Cloudy 30 -1 19 -7 64 64 SSE 12 19 30.21 1023 10 16 N/A
8:39 am 08:39 Cloudy 30 -1 19 -7 64 64 SSE 14 22 30.21 1023 10 16 N/A
8:59 am 08:59 Cloudy 30 -1 19 -7 64 64 S 9 15 30.21 1023 10 16 N/A
9:19 am 09:19 Cloudy 30 -1 19 -7 64 64 S 12 19 30.21 1023 10 16 N/A
9:39 am 09:39 Cloudy 30 -1 19 -7 64 64 SSE 14 22 30.21 1023 10 16 N/A
9:59 am 09:59 Cloudy 32 undefined 21 -6 64 64 SSE 12 19 30.18 1022 10 16 N/A
10:19 am 10:19 Cloudy 32 undefined 21 -6 64 64 SSE 14 22 30.18 1022 10 16 N/A
10:39 am 10:39 Cloudy 32 undefined 21 -6 64 64 S 12 19 30.18 1022 10 16 N/A
10:59 am 10:59 Cloudy 32 undefined 21 -6 64 64 S 13 20 30.15 1021 10 16 N/A
11:19 am 11:19 Cloudy 32 undefined 23 -5 69 69 S 10 17 30.15 1021 10 16 N/A
11:39 am 11:39 Cloudy 32 undefined 23 -5 69 69 S 10 17 30.15 1021 7 11 N/A
11:59 am 11:59 Cloudy 32 undefined 23 -5 69 69 S 12 19 30.12 1020 7 11 N/A
12:19 pm 12:19 Cloudy 32 undefined 23 -5 69 69 S 13 20 30.12 1020 10 16 N/A
12:39 pm 12:39 Cloudy 32 undefined 23 -5 69 69 S 10 17 30.09 1019 10 16 N/A
12:59 pm 12:59 Cloudy 32 undefined 23 -5 69 69 S 9 15 30.09 1019 10 16 N/A
1:19 pm 13:19 Cloudy 34 1 23 -5 65 65 S 10 17 30.06 1018 10 16 N/A
1:39 pm 13:39 Cloudy 34 1 23 -5 65 65 S 8 13 30.06 1018 10 16 N/A
1:59 pm 13:59 Cloudy 34 1 23 -5 65 65 S 13 20 30.03 1017 10 16 N/A
2:19 pm 14:19 Cloudy 32 undefined 25 -4 75 75 SSE 13 20 30.03 1017 10 16 N/A
2:39 pm 14:39 Cloudy 32 undefined 25 -4 75 75 S 13 20 30.00 1016 10 16 N/A
2:59 pm 14:59 Cloudy 32 undefined 27 -3 80 80 S 10 17 30.00 1016 10 16 N/A
3:19 pm 15:19 Cloudy 32 undefined 27 -3 80 80 S 12 19 30.00 1016 10 16 N/A
3:39 pm 15:39 Cloudy 32 undefined 28 -2 87 87 S 12 19 30.00 1016 3 5 N/A
3:59 pm 15:59 Cloudy 32 undefined 28 -2 87 87 S 10 17 29.97 1015 5 8 N/A
4:20 pm 16:20 Cloudy 32 undefined 28 -2 87 87 S 12 19 29.97 1015 7 11 N/A
4:39 pm 16:39 Cloudy 32 undefined 28 -2 87 87 S 9 15 29.97 1015 7 11 N/A
4:59 pm 16:59 Cloudy 32 undefined 30 -1 93 93 S 12 19 29.97 1015 7 11 N/A
5:19 pm 17:19 Cloudy 32 undefined 30 -1 93 93 S 8 13 29.94 1014 7 11 N/A
5:39 pm 17:39 Cloudy 32 undefined 30 -1 93 93 S 12 19 29.94 1014 7 11 N/A
5:59 pm 17:59 Cloudy 32 undefined 30 -1 93 93 S 10 17 29.94 1014 5 8 N/A
6:19 pm 18:19 Cloudy 32 undefined 30 -1 93 93 S 9 15 29.94 1014 5 8 N/A
6:39 pm 18:39 Cloudy 32 undefined 32 undefined 100 100 S 9 15 29.94 1014 4 6 N/A
6:59 pm 18:59 Cloudy 32 undefined 32 undefined 100 100 S 8 13 29.94 1014 5 8 N/A
7:19 pm 19:19 Cloudy 32 undefined 32 undefined 100 100 S 7 11 29.91 1013 4 6 N/A
7:39 pm 19:39 Cloudy 32 undefined 32 undefined 100 100 S 7 11 29.91 1013 3 5 N/A
7:59 pm 19:59 Cloudy 32 undefined 32 undefined 100 100 S 8 13 29.91 1013 3 5 N/A
8:18 pm 20:18 Cloudy 34 1 32 undefined 93 93 S 7 11 29.88 1012 3 4 N/A
8:39 pm 20:39 Cloudy 34 1 32 undefined 93 93 SSW 7 11 29.88 1012 3 5 N/A
8:59 pm 20:59 Cloudy 34 1 32 undefined 93 93 SSW 7 11 29.88 1012 3 4 N/A
9:19 pm 21:19 Cloudy 34 1 32 undefined 93 93 SSW 9 15 29.88 1012 4 6 N/A
9:39 pm 21:39 Cloudy 34 1 34 1 100 100 SSW 8 13 29.88 1012 3 4 N/A
9:59 pm 21:59 Cloudy 34 1 34 1 100 100 SSW 7 11 29.88 1012 3 4 N/A
10:19 pm 22:19 Cloudy 34 1 34 1 100 100 SW 7 11 29.88 1012 3 4 N/A
10:39 pm 22:39 Cloudy 36 2 34 1 93 93 SW 12 19 29.83 1010 3 5 N/A
10:59 pm 22:59 Cloudy 36 2 34 1 93 93 SW 12 19 29.83 1010 7 11 N/A
11:19 pm 23:19 Cloudy 36 2 34 1 93 93 SW 13 20 29.85 1011 7 11 N/A
11:39 pm 23:39 Cloudy 36 2 34 1 93 93 WSW 12 19 29.85 1011 7 11 N/A
11:59 pm 23:59 Cloudy 36 2 34 1 93 93 WSW 16 26 29.85 1011 10 16 N/A

Powered by AerisWeather